TITAN 3C TRANSTAGE DEB, 13906

Orbit data source: Space-Track

TITAN 3C TRANSTAGE DEB, 13906 is space debris in HEO originally from a launch on Tue, 21 Dec 1965 UTC launched from the Air Force Eastern Test Range (AFETR). Debris objects in space refer to the collection of defunct objects orbiting the Earth. Examples of debris include non-operational satellites, rocket bodies, and fragments generated from explosions, collisions, or faulty payload assembly.

Loading next visibility...
Identifier
13906, 1965-108U
Orbit
HEO
Country
Flag of USUS
Related business
Manufacturer
Unknown
Mission
Spacecraft
Bus & Motor
Unknown
Mass
Unknown
Launch date (UTC)
1965-12-21 (61 years ago)
Launch vehicle
Unknown
Launch site
Air Force Eastern Test Range (AFETR)
Object type
Payload
Rocket body
Debris
Shape & HBR
Unknown shape, 0.5 m
Radar Cross Section
Medium (>0.1 m² and <1 m²)

Expand to show TLE details & history
Last TLE update: 2 days ago

TLE from 2 days ago
0 TITAN 3C TRANSTAGE DEB
1 13906U 65108U   26177.26553177  .00000292  00000-0  24143-2 0  9997
2 13906  26.2546 259.1009 6753574 237.1732 155.4554  2.78156683343638
Epoch: 2026-06-26T06:22Z
TLE epoch observation values (Epoch: 2026-06-26T06:22:21.944Z)
Latitude
20.00868°
Longitude
-63.3534°
Altitude
28,922.786 km
Speed
1.98 km/s
True Right ascension
20h 26m 32s
True Declination
19° 59' 11"
Sunlit
Object was in daylight at epoch
Visualization orbit readout
Latitude
Unknown
Longitude
Unknown
Altitude
Unknown
Speed
Unknown
Apparent Right ascension
Unknown
Apparent Declination
Unknown
Sunlit
N/A
Visualization observer readout
Local Sidereal Time
07:19:45
Azimuth
Unknown
Elevation
Unknown
Doppler factor
Unknown
Orbital elements
Apogee altitude
29,408.737 km
Perigee altitude
556.469 km
Semi-major axis
21,360.74 km
Eccentricity
0.67536
Inclination
26.2546°
RAAN
259.1009°
Arg. of periapsis
237.1732°
True anomaly
173.49347°
Mean anomaly
155.4554°
Eccentric anomaly
165.28463°
Mean motion
0.69521 °/min
Orbital period
517.83 mins
BSTAR
0.0024143
Loading maneuver chart data...
Computing Atmospheric mass density...

Documentation

Showing up to 5 results
|